AFL638 UHWW-VTSP

Flight info

Callsign AFL638
Flight time N/A
Altitude 38100
Route SANAR2W SANAR B451 WQG G341 TGO G212 BUMDU W47 ASAVA W45 RUSDO/K0895S1220 W45 LYA/K0889S1190 W45 ML/K0889S1220 W45 NUPTI R343 WUY R474 TEBAK/K0902F400 R474 LAVOS/N0487F400 R474 BKK Y8 SAVSA SAVSA1C
Aircraft A359/H-SDE2E3GHIJ3J4J5LM1ORWXY/LB1D1

Departure

Time 2026-04-25 23:26
Airport Vladivostok International Airport (UHWW)

Arrival

Time N/A
Airport Phuket International Airport (VTSP)
Time Latitude Longitude Altitude Speed Heading
2026-04-25 22:44 43.39674 132.16328 55 ft 0 kts 151°
2026-04-25 23:19 43.39684 132.16319 47 ft 4 kts 148°
2026-04-25 23:19 43.39707 132.16298 47 ft 4 kts 141°
2026-04-25 23:19 43.39727 132.16274 47 ft 4 kts 135°
2026-04-25 23:19 43.39745 132.16247 48 ft 4 kts 130°
2026-04-25 23:20 43.39762 132.16218 48 ft 4 kts 129°
2026-04-25 23:20 43.39780 132.16191 48 ft 3 kts 147°
2026-04-25 23:20 43.39784 132.16188 48 ft 5 kts 151°
2026-04-25 23:23 43.39811 132.16465 48 ft 23 kts 67°
2026-04-25 23:23 43.39884 132.16664 46 ft 24 kts 63°
2026-04-25 23:23 43.39972 132.16862 48 ft 25 kts 54°
2026-04-25 23:23 43.40060 132.17038 43 ft 16 kts 41°
2026-04-25 23:24 43.40160 132.17049 47 ft 14 kts 338°
2026-04-25 23:24 43.40254 132.16990 45 ft 15 kts 329°
2026-04-25 23:24 43.40345 132.16916 46 ft 10 kts 329°
2026-04-25 23:24 43.40395 132.16875 45 ft 9 kts 326°
2026-04-25 23:25 43.40421 132.16801 46 ft 9 kts 272°
2026-04-25 23:25 43.40399 132.16708 46 ft 12 kts 243°
2026-04-25 23:25 43.40343 132.16556 46 ft 35 kts 245°
2026-04-25 23:25 43.40122 132.16006 53 ft 95 kts 240°
2026-04-25 23:26 43.39706 132.14982 58 ft 148 kts 241°
2026-04-25 23:26 43.39150 132.13602 357 ft 172 kts 241°
2026-04-25 23:26 43.38547 132.12160 957 ft 177 kts 240°
2026-04-25 23:26 43.37953 132.10728 1675 ft 177 kts 241°
2026-04-25 23:27 43.37319 132.09141 1976 ft 202 kts 242°
2026-04-25 23:27 43.36616 132.07385 2476 ft 214 kts 241°
2026-04-25 23:27 43.35873 132.05535 2930 ft 233 kts 241°
2026-04-25 23:27 43.35070 132.03483 3276 ft 252 kts 245°
2026-04-25 23:28 43.34447 132.01193 3915 ft 258 kts 252°
2026-04-25 23:28 43.33907 131.98820 4617 ft 261 kts 253°
2026-04-25 23:28 43.33368 131.96421 5341 ft 265 kts 253°
2026-04-25 23:28 43.32820 131.93993 6063 ft 268 kts 253°
2026-04-25 23:29 43.32262 131.91538 6818 ft 271 kts 253°
2026-04-25 23:29 43.31696 131.89057 7584 ft 274 kts 252°
2026-04-25 23:29 43.31123 131.86552 8349 ft 277 kts 252°
2026-04-25 23:29 43.30550 131.84049 9096 ft 280 kts 252°
2026-04-25 23:30 43.29961 131.81487 9855 ft 283 kts 252°
2026-04-25 23:30 43.29361 131.78874 10451 ft 294 kts 252°
2026-04-25 23:30 43.28722 131.76102 10753 ft 314 kts 252°
2026-04-25 23:30 43.28042 131.73150 11065 ft 333 kts 252°
2026-04-25 23:31 43.27324 131.70038 11341 ft 351 kts 252°
2026-04-25 23:31 43.26569 131.66773 11754 ft 364 kts 252°
2026-04-25 23:31 43.25794 131.63425 12370 ft 370 kts 252°
2026-04-25 23:31 43.25009 131.60040 13010 ft 375 kts 252°
2026-04-25 23:32 43.24214 131.56617 13657 ft 379 kts 252°
2026-04-25 23:32 43.23408 131.53152 14310 ft 383 kts 252°
2026-04-25 23:32 43.22595 131.49660 14941 ft 386 kts 252°
2026-04-25 23:32 43.21869 131.46101 15529 ft 390 kts 259°
2026-04-25 23:33 43.21667 131.42389 16149 ft 393 kts 270°
2026-04-25 23:33 43.21788 131.38629 16748 ft 396 kts 274°
2026-04-25 23:33 43.22057 131.34845 17317 ft 400 kts 276°
2026-04-25 23:33 43.22385 131.31045 17885 ft 404 kts 277°
2026-04-25 23:34 43.22722 131.27204 18451 ft 407 kts 277°
2026-04-25 23:34 43.23044 131.23332 19005 ft 411 kts 276°
2026-04-25 23:34 43.23345 131.19459 19577 ft 414 kts 276°
2026-04-25 23:34 43.23609 131.15507 20136 ft 418 kts 274°
2026-04-25 23:35 43.23812 131.11518 20704 ft 421 kts 274°
2026-04-25 23:35 43.23987 131.07486 21266 ft 425 kts 273°
2026-04-25 23:35 43.24156 131.03426 21802 ft 428 kts 273°
2026-04-25 23:35 43.24329 130.99328 22324 ft 432 kts 273°
2026-04-25 23:36 43.24509 130.95200 22838 ft 436 kts 273°
2026-04-25 23:36 43.24696 130.91037 23341 ft 439 kts 274°
2026-04-25 23:36 43.24886 130.86844 23818 ft 443 kts 274°
2026-04-25 23:36 43.25080 130.82601 24270 ft 447 kts 274°
2026-04-25 23:37 43.25275 130.78323 24732 ft 451 kts 274°
2026-04-25 23:37 43.25469 130.74021 25210 ft 453 kts 273°
2026-04-25 23:37 43.25663 130.69686 25674 ft 456 kts 273°
2026-04-25 23:37 43.25853 130.65380 26098 ft 460 kts 273°
2026-04-25 23:38 43.26046 130.60985 26519 ft 463 kts 273°
2026-04-25 23:38 43.26238 130.56559 26929 ft 466 kts 273°
2026-04-25 23:38 43.26429 130.52107 27341 ft 469 kts 273°
2026-04-25 23:38 43.26620 130.47618 27713 ft 472 kts 273°
2026-04-25 23:39 43.26811 130.43103 28097 ft 476 kts 273°
2026-04-25 23:39 43.27001 130.38551 28462 ft 479 kts 273°
2026-04-25 23:39 43.27190 130.33978 28839 ft 481 kts 273°
2026-04-25 23:39 43.27378 130.29388 29211 ft 483 kts 273°
2026-04-25 23:40 43.27566 130.24763 29547 ft 486 kts 273°
2026-04-25 23:40 43.27753 130.20124 29893 ft 488 kts 273°
2026-04-25 23:40 43.27938 130.15461 30214 ft 490 kts 273°
2026-04-25 23:40 43.28122 130.10781 30534 ft 493 kts 273°
2026-04-25 23:41 43.28306 130.06068 30826 ft 495 kts 273°
2026-04-25 23:41 43.28488 130.01335 31103 ft 497 kts 273°
2026-04-25 23:41 43.28668 129.96601 31485 ft 496 kts 273°
2026-04-25 23:41 43.28846 129.91878 31923 ft 494 kts 273°
2026-04-25 23:42 43.29022 129.87176 32313 ft 493 kts 273°
2026-04-25 23:42 43.29195 129.82483 32694 ft 492 kts 273°
2026-04-25 23:42 43.29533 129.77810 33050 ft 491 kts 279°
2026-04-25 23:42 43.30106 129.73195 33384 ft 490 kts 280°
2026-04-25 23:43 43.30726 129.68606 33713 ft 489 kts 281°
2026-04-25 23:43 43.31374 129.64020 34014 ft 489 kts 281°
2026-04-25 23:43 43.32030 129.59447 34340 ft 488 kts 281°
2026-04-25 23:43 43.32679 129.54938 34654 ft 487 kts 281°
2026-04-25 23:44 43.33332 129.50374 34928 ft 487 kts 281°
2026-04-25 23:44 43.33979 129.45813 35171 ft 487 kts 281°
2026-04-25 23:44 43.34624 129.41236 35390 ft 487 kts 281°
2026-04-25 23:44 43.35265 129.36651 35608 ft 488 kts 281°
2026-04-25 23:45 43.35902 129.32082 35862 ft 487 kts 281°
2026-04-25 23:45 43.36536 129.27512 36112 ft 487 kts 281°
2026-04-25 23:45 43.37170 129.22935 36282 ft 488 kts 281°
2026-04-25 23:45 43.37803 129.18347 36471 ft 488 kts 281°
2026-04-25 23:46 43.38434 129.13761 36659 ft 488 kts 281°
2026-04-25 23:46 43.39063 129.09178 36862 ft 488 kts 281°
2026-04-25 23:46 43.39692 129.04584 37054 ft 488 kts 281°
2026-04-25 23:46 43.40312 128.99993 37251 ft 488 kts 280°
2026-04-25 23:47 43.40908 128.95467 37430 ft 488 kts 280°
2026-04-25 23:47 43.41507 128.90870 37584 ft 488 kts 280°
2026-04-25 23:47 43.42104 128.86267 37756 ft 488 kts 280°
2026-04-25 23:47 43.42699 128.81678 37934 ft 487 kts 280°
2026-04-25 23:48 43.43294 128.77085 38074 ft 488 kts 280°
2026-04-25 23:48 43.44489 128.67856 38101 ft 491 kts 280°
2026-04-25 23:49 43.45682 128.58586 38102 ft 492 kts 280°
2026-04-25 23:49 43.46867 128.49327 38103 ft 490 kts 280°
2026-04-25 23:50 43.48040 128.40089 38096 ft 490 kts 279°
2026-04-25 23:50 43.49207 128.30845 38102 ft 490 kts 279°
2026-04-25 23:51 43.50387 128.21611 38100 ft 489 kts 280°
2026-04-25 23:51 43.51603 128.12445 38103 ft 490 kts 280°
2026-04-25 23:52 43.52824 128.03215 38101 ft 490 kts 280°
2026-04-25 23:52 43.54029 127.93975 38099 ft 490 kts 280°
2026-04-25 23:53 43.55221 127.84741 38100 ft 490 kts 280°
2026-04-25 23:53 43.56413 127.75478 38103 ft 490 kts 280°
2026-04-25 23:54 43.57594 127.66222 38102 ft 490 kts 280°
2026-04-25 23:54 43.58765 127.56957 38097 ft 490 kts 279°
2026-04-25 23:55 43.59930 127.47698 38100 ft 489 kts 279°
2026-04-25 23:55 43.61085 127.38458 38099 ft 489 kts 279°
2026-04-25 23:56 43.62233 127.29211 38100 ft 489 kts 279°
2026-04-25 23:56 43.63320 127.19956 38101 ft 488 kts 278°
2026-04-25 23:57 43.64303 127.10670 38100 ft 489 kts 278°
2026-04-25 23:57 43.65276 127.01423 38102 ft 490 kts 278°
2026-04-25 23:58 43.66264 126.92129 38099 ft 489 kts 278°
2026-04-25 23:58 43.67251 126.82855 38099 ft 488 kts 278°
2026-04-25 23:59 43.68233 126.73559 38100 ft 489 kts 278°
2026-04-25 23:59 43.69206 126.64267 38098 ft 488 kts 278°
2026-04-26 00:00 43.70171 126.54973 38099 ft 488 kts 278°
2026-04-26 00:00 43.71128 126.45684 38103 ft 488 kts 278°
2026-04-26 00:01 43.72077 126.36397 38099 ft 488 kts 278°
2026-04-26 00:01 43.73019 126.27090 38098 ft 488 kts 278°
2026-04-26 00:02 43.73953 126.17794 38095 ft 488 kts 278°
2026-04-26 00:02 43.74873 126.08554 38102 ft 488 kts 278°
2026-04-26 00:03 43.75792 125.99256 38103 ft 488 kts 277°
2026-04-26 00:03 43.76746 125.89970 38100 ft 487 kts 279°
2026-04-26 00:04 43.77033 125.80629 38103 ft 487 kts 268°
2026-04-26 00:04 43.76725 125.72854 38103 ft 487 kts 266°
2026-04-26 00:05 43.76217 125.63505 38098 ft 487 kts 265°
2026-04-26 00:05 43.75679 125.54144 38096 ft 488 kts 265°
2026-04-26 00:06 43.75147 125.44784 38098 ft 488 kts 265°
2026-04-26 00:06 43.74617 125.35419 38096 ft 488 kts 265°
2026-04-26 00:07 43.74083 125.26071 38100 ft 487 kts 265°
2026-04-26 00:07 43.73541 125.16727 38103 ft 488 kts 265°
2026-04-26 00:08 43.72994 125.07444 38102 ft 487 kts 265°
2026-04-26 00:08 43.72436 124.98094 38102 ft 487 kts 265°
2026-04-26 00:09 43.71870 124.88753 38096 ft 487 kts 265°
2026-04-26 00:09 43.71297 124.79409 38099 ft 487 kts 265°
2026-04-26 00:10 43.70716 124.70067 38100 ft 487 kts 265°
2026-04-26 00:10 43.70128 124.60745 38100 ft 487 kts 265°
2026-04-26 00:11 43.69532 124.51406 38100 ft 487 kts 265°
2026-04-26 00:11 43.68929 124.42089 38100 ft 487 kts 265°
2026-04-26 00:12 43.68323 124.32832 38099 ft 487 kts 265°
2026-04-26 00:12 43.67732 124.23505 38099 ft 487 kts 265°
2026-04-26 00:13 43.67213 124.14163 38101 ft 487 kts 265°
2026-04-26 00:13 43.66695 124.04849 38098 ft 487 kts 265°
2026-04-26 00:14 43.66157 123.95520 38102 ft 487 kts 265°
2026-04-26 00:14 43.65604 123.86193 38098 ft 487 kts 265°
2026-04-26 00:15 43.65044 123.76871 38097 ft 487 kts 265°
2026-04-26 00:15 43.64479 123.67605 38100 ft 487 kts 265°
2026-04-26 00:16 43.63903 123.58281 38100 ft 487 kts 265°
2026-04-26 00:16 43.63321 123.48969 38103 ft 487 kts 265°
2026-04-26 00:17 43.62730 123.39654 38102 ft 487 kts 265°
2026-04-26 00:17 43.62133 123.30342 38096 ft 487 kts 265°
2026-04-26 00:18 43.61527 123.21027 38102 ft 487 kts 265°
2026-04-26 00:18 43.60983 123.11774 38103 ft 487 kts 266°
2026-04-26 00:19 43.60533 123.02442 38099 ft 487 kts 266°
2026-04-26 00:19 43.60076 122.93114 38100 ft 487 kts 266°
2026-04-26 00:20 43.59594 122.83793 38102 ft 487 kts 266°
2026-04-26 00:20 43.59095 122.74474 38101 ft 487 kts 265°
2026-04-26 00:21 43.58587 122.65145 38102 ft 487 kts 265°
2026-04-26 00:21 43.58074 122.55873 38097 ft 487 kts 265°
2026-04-26 00:22 43.57553 122.46554 38101 ft 487 kts 265°
2026-04-26 00:22 43.57026 122.37284 38104 ft 473 kts 266°
2026-04-26 00:22 43.56770 122.32884 38113 ft 448 kts 266°
2026-04-26 00:23 43.56524 122.28685 38123 ft 433 kts 266°
2026-04-26 00:23 43.55358 122.20582 38091 ft 435 kts 253°
2026-04-26 00:24 43.52603 122.13047 38071 ft 446 kts 240°
2026-04-26 00:24 43.49074 122.06038 38070 ft 448 kts 237°
2026-04-26 00:25 43.45411 121.99105 38071 ft 447 kts 237°
2026-04-26 00:25 43.41778 121.92187 38076 ft 445 kts 238°
2026-04-26 00:26 43.38158 121.85261 38070 ft 448 kts 238°
2026-04-26 00:26 43.34523 121.78313 38071 ft 448 kts 238°
2026-04-26 00:27 43.30876 121.71354 38072 ft 449 kts 238°
2026-04-26 00:27 43.27226 121.64417 38073 ft 448 kts 238°
2026-04-26 00:28 43.23591 121.57492 38066 ft 447 kts 238°
2026-04-26 00:28 43.19948 121.50584 38059 ft 447 kts 238°
2026-04-26 00:29 43.16335 121.43759 38063 ft 446 kts 238°
2026-04-26 00:29 43.12670 121.36811 38062 ft 447 kts 238°
2026-04-26 00:30 43.09029 121.29962 38063 ft 447 kts 238°
2026-04-26 00:30 43.05367 121.23075 38061 ft 447 kts 238°
2026-04-26 00:31 43.01690 121.16201 38062 ft 449 kts 238°
2026-04-26 00:31 42.98016 121.09329 38060 ft 445 kts 238°
2026-04-26 00:32 42.94354 121.02495 38062 ft 447 kts 238°
2026-04-26 00:32 42.88842 120.92229 38062 ft 448 kts 238°
2026-04-26 00:33 42.85154 120.85391 38065 ft 446 kts 238°
2026-04-26 00:33 42.81468 120.78557 38061 ft 448 kts 238°
2026-04-26 00:34 42.77761 120.71726 38065 ft 449 kts 237°
2026-04-26 00:34 42.74045 120.64903 38061 ft 449 kts 238°
2026-04-26 00:35 42.70357 120.58118 38063 ft 448 kts 239°
2026-04-26 00:35 42.66650 120.51319 38061 ft 447 kts 238°
2026-04-26 00:36 42.62947 120.44544 38062 ft 446 kts 239°
2026-04-26 00:36 42.59240 120.37772 38064 ft 448 kts 238°
2026-04-26 00:37 42.55516 120.30985 38061 ft 448 kts 239°
2026-04-26 00:37 42.51794 120.24218 38061 ft 446 kts 239°
2026-04-26 00:38 42.48070 120.17469 38061 ft 446 kts 238°
2026-04-26 00:38 42.44364 120.10792 38063 ft 446 kts 239°
2026-04-26 00:39 42.40642 120.04058 38062 ft 446 kts 239°
2026-04-26 00:39 42.36923 119.97330 38061 ft 446 kts 239°
2026-04-26 00:40 42.33185 119.90606 38061 ft 448 kts 239°
2026-04-26 00:40 42.29433 119.83890 38062 ft 447 kts 239°
2026-04-26 00:41 42.25684 119.77192 38061 ft 447 kts 239°
2026-04-26 00:41 42.21957 119.70547 38062 ft 446 kts 239°
2026-04-26 00:42 42.18206 119.63859 38061 ft 447 kts 238°
2026-04-26 00:42 42.14436 119.57166 38061 ft 448 kts 239°
2026-04-26 00:43 42.10669 119.50484 38062 ft 448 kts 239°
2026-04-26 00:43 42.06899 119.43803 38062 ft 448 kts 239°
2026-04-26 00:44 42.03112 119.37127 38062 ft 448 kts 239°
2026-04-26 00:44 41.99362 119.30508 38061 ft 447 kts 239°
2026-04-26 00:45 41.96200 119.24924 38062 ft 448 kts 239°
2026-04-26 00:45 41.91784 119.17197 38065 ft 450 kts 238°
2026-04-26 00:46 41.87969 119.10565 38051 ft 448 kts 239°
2026-04-26 00:46 41.84177 119.03933 38061 ft 447 kts 239°
2026-04-26 00:47 41.80398 118.97335 38062 ft 446 kts 239°
2026-04-26 00:47 41.76610 118.90749 38049 ft 446 kts 239°
2026-04-26 00:48 41.72811 118.84161 38053 ft 447 kts 239°
2026-04-26 00:48 41.69018 118.77591 38055 ft 445 kts 239°
2026-04-26 00:49 41.65246 118.71076 38051 ft 447 kts 239°
2026-04-26 00:49 41.61436 118.64505 38050 ft 446 kts 239°
2026-04-26 00:50 41.57618 118.57942 38055 ft 446 kts 239°
2026-04-26 00:50 41.53797 118.51365 38051 ft 446 kts 239°
2026-04-26 00:51 41.50052 118.44844 38053 ft 442 kts 242°
2026-04-26 00:51 41.46751 118.37946 38048 ft 440 kts 245°
2026-04-26 00:52 41.43556 118.30985 38055 ft 439 kts 245°
2026-04-26 00:52 41.40381 118.24045 38042 ft 437 kts 245°
2026-04-26 00:53 41.37728 118.18275 38051 ft 440 kts 245°
2026-04-26 00:53 41.34530 118.11329 38053 ft 439 kts 245°
2026-04-26 00:54 41.31320 118.04388 38053 ft 440 kts 245°
2026-04-26 00:54 41.28089 117.97435 38053 ft 443 kts 245°
2026-04-26 00:55 41.24861 117.90503 38054 ft 440 kts 244°
2026-04-26 00:55 41.21641 117.83615 38044 ft 438 kts 245°
2026-04-26 00:56 41.18437 117.76729 38043 ft 440 kts 245°
2026-04-26 00:56 41.15236 117.69878 38040 ft 439 kts 244°
2026-04-26 00:57 41.12018 117.62973 38042 ft 441 kts 244°
2026-04-26 00:57 41.08771 117.56070 38040 ft 440 kts 244°
2026-04-26 00:58 41.05329 117.49359 38045 ft 446 kts 237°
2026-04-26 00:58 41.00670 117.43744 38043 ft 464 kts 221°
2026-04-26 00:59 40.94788 117.39928 38041 ft 476 kts 210°
2026-04-26 00:59 40.88576 117.36776 38046 ft 480 kts 208°
2026-04-26 01:00 40.82332 117.33724 38041 ft 478 kts 208°
2026-04-26 01:00 40.76240 117.30305 38031 ft 470 kts 217°
2026-04-26 01:01 40.71164 117.25201 38033 ft 451 kts 233°
2026-04-26 01:01 40.67608 117.18621 38035 ft 436 kts 247°
2026-04-26 01:02 40.64810 117.11564 38033 ft 434 kts 249°
2026-04-26 01:02 40.62117 117.04512 38035 ft 434 kts 249°
2026-04-26 01:03 40.59351 116.97363 38031 ft 435 kts 249°
2026-04-26 01:03 40.56570 116.90307 38035 ft 435 kts 248°
2026-04-26 01:04 40.53788 116.83250 38034 ft 435 kts 248°
2026-04-26 01:04 40.51026 116.76218 38038 ft 435 kts 248°
2026-04-26 01:05 40.48239 116.69161 38036 ft 436 kts 248°
2026-04-26 01:05 40.45429 116.62110 38037 ft 434 kts 248°
2026-04-26 01:06 40.42637 116.55066 38035 ft 435 kts 248°
2026-04-26 01:06 40.39842 116.48043 38033 ft 434 kts 248°
2026-04-26 01:07 40.37033 116.41005 38038 ft 433 kts 248°
2026-04-26 01:07 40.34164 116.34027 38041 ft 438 kts 244°
2026-04-26 01:08 40.30455 116.27578 38045 ft 446 kts 237°
2026-04-26 01:08 40.26455 116.21357 38045 ft 446 kts 236°
2026-04-26 01:09 40.22452 116.15247 38043 ft 444 kts 236°
2026-04-26 01:09 40.18416 116.09088 38043 ft 446 kts 236°
2026-04-26 01:10 40.14389 116.02916 38044 ft 444 kts 236°
2026-04-26 01:10 40.10361 115.96744 38044 ft 446 kts 236°
2026-04-26 01:11 40.06330 115.90589 38043 ft 446 kts 236°
2026-04-26 01:11 40.02318 115.84470 38028 ft 446 kts 236°
2026-04-26 01:12 39.98267 115.78329 38026 ft 444 kts 236°
2026-04-26 01:12 39.94235 115.72189 38030 ft 445 kts 236°
2026-04-26 01:13 39.90241 115.66104 38025 ft 446 kts 236°
2026-04-26 01:13 39.86195 115.59974 38017 ft 447 kts 236°
2026-04-26 01:14 39.82141 115.53846 38033 ft 447 kts 236°
2026-04-26 01:14 39.78091 115.47727 38023 ft 446 kts 236°
2026-04-26 01:15 39.74700 115.41102 38023 ft 436 kts 247°
2026-04-26 01:15 39.71863 115.34149 38019 ft 435 kts 248°
2026-04-26 01:16 39.69105 115.27146 38026 ft 436 kts 249°
2026-04-26 01:16 39.66361 115.20167 38024 ft 439 kts 249°
2026-04-26 01:17 39.63575 115.13125 38020 ft 438 kts 248°
2026-04-26 01:17 39.60773 115.06093 38021 ft 440 kts 248°
2026-04-26 01:18 39.57955 114.99086 38028 ft 438 kts 248°
2026-04-26 01:18 39.55138 114.92082 38026 ft 438 kts 248°
2026-04-26 01:19 39.52316 114.85083 38026 ft 438 kts 248°
2026-04-26 01:19 39.49492 114.78078 38028 ft 438 kts 248°
2026-04-26 01:20 39.46671 114.71071 38023 ft 439 kts 248°
2026-04-26 01:20 39.43841 114.64067 38031 ft 439 kts 248°
2026-04-26 01:21 39.41007 114.57067 38035 ft 439 kts 248°
2026-04-26 01:21 39.38160 114.50053 38033 ft 441 kts 248°
2026-04-26 01:22 39.35297 114.43049 38036 ft 440 kts 248°
2026-04-26 01:22 39.32438 114.36089 38035 ft 441 kts 248°
2026-04-26 01:23 39.29571 114.29132 38039 ft 439 kts 248°
2026-04-26 01:23 39.26595 114.22211 38032 ft 445 kts 243°
2026-04-26 01:24 39.22510 114.16112 38036 ft 459 kts 227°
2026-04-26 01:24 39.16959 114.11716 38030 ft 481 kts 209°
2026-04-26 01:25 39.10522 114.09104 38034 ft 487 kts 202°
2026-04-26 01:25 39.03956 114.06866 38036 ft 488 kts 202°
2026-04-26 01:26 38.97391 114.04646 38033 ft 486 kts 202°
2026-04-26 01:26 38.90906 114.02367 38035 ft 487 kts 203°
2026-04-26 01:27 38.84377 114.00026 38039 ft 485 kts 204°
2026-04-26 01:27 38.77836 113.97695 38029 ft 490 kts 203°
2026-04-26 01:28 38.71245 113.95371 38025 ft 492 kts 203°
2026-04-26 01:28 38.64636 113.93053 38025 ft 494 kts 202°
2026-04-26 01:29 38.58005 113.90757 38025 ft 493 kts 203°
2026-04-26 01:29 38.51391 113.88435 38025 ft 493 kts 203°
2026-04-26 01:30 38.44774 113.86116 38021 ft 493 kts 203°
2026-04-26 01:30 38.38155 113.83798 38024 ft 493 kts 202°
2026-04-26 01:31 38.31516 113.81484 38029 ft 494 kts 202°
2026-04-26 01:31 38.24934 113.79203 38034 ft 493 kts 203°
2026-04-26 01:32 38.18314 113.76924 38025 ft 494 kts 203°
2026-04-26 01:32 38.11688 113.74623 38037 ft 493 kts 202°
2026-04-26 01:33 38.05050 113.72339 38033 ft 495 kts 202°
2026-04-26 01:33 37.98396 113.70065 38041 ft 495 kts 202°
2026-04-26 01:34 37.91764 113.67809 38044 ft 494 kts 202°
2026-04-26 01:34 37.85126 113.65539 38040 ft 492 kts 203°
2026-04-26 01:35 37.78496 113.63262 38043 ft 494 kts 202°
2026-04-26 01:35 37.71854 113.60996 38043 ft 495 kts 203°
2026-04-26 01:36 37.65196 113.58733 38044 ft 496 kts 203°
2026-04-26 01:37 37.55182 113.55324 38042 ft 496 kts 202°
2026-04-26 01:37 37.48552 113.53085 38046 ft 497 kts 202°
2026-04-26 01:38 37.41881 113.50831 38042 ft 497 kts 202°
2026-04-26 01:38 37.35193 113.48582 38043 ft 496 kts 202°
2026-04-26 01:39 37.28538 113.46331 38043 ft 497 kts 202°
2026-04-26 01:39 37.21854 113.44082 38044 ft 496 kts 203°
2026-04-26 01:40 37.15168 113.41844 38044 ft 498 kts 202°
2026-04-26 01:40 37.08458 113.39605 38046 ft 499 kts 202°
2026-04-26 01:41 37.02892 113.37747 38044 ft 497 kts 202°
2026-04-26 01:41 36.95111 113.35138 38042 ft 498 kts 202°
2026-04-26 01:42 36.88407 113.32906 38044 ft 499 kts 202°
2026-04-26 01:42 36.82788 113.31040 38044 ft 498 kts 202°
2026-04-26 01:43 36.76112 113.28828 38042 ft 500 kts 202°
2026-04-26 01:43 36.69383 113.26602 38040 ft 500 kts 202°
2026-04-26 01:44 36.62658 113.24379 38048 ft 499 kts 202°
2026-04-26 01:44 36.55944 113.22164 38039 ft 499 kts 202°
2026-04-26 01:45 36.49226 113.19939 38042 ft 498 kts 202°
2026-04-26 01:45 36.42496 113.17733 38036 ft 499 kts 202°
2026-04-26 01:46 36.35772 113.15532 38033 ft 500 kts 202°
2026-04-26 01:46 36.29035 113.13324 38035 ft 500 kts 202°
2026-04-26 01:47 36.22432 113.10769 38035 ft 493 kts 209°
2026-04-26 01:47 36.16129 113.07596 38034 ft 491 kts 211°
2026-04-26 01:48 36.09835 113.04304 38034 ft 491 kts 211°
2026-04-26 01:48 36.03526 113.00997 38034 ft 491 kts 211°
2026-04-26 01:49 35.97208 112.97709 38030 ft 493 kts 211°
2026-04-26 01:49 35.90880 112.94422 38029 ft 493 kts 211°
2026-04-26 01:50 35.84554 112.91136 38027 ft 494 kts 211°
2026-04-26 01:50 35.78200 112.87852 38025 ft 495 kts 211°
2026-04-26 01:51 35.71877 112.84586 38023 ft 494 kts 211°
2026-04-26 01:51 35.65527 112.81275 38019 ft 496 kts 211°
2026-04-26 01:52 35.59176 112.77971 38024 ft 494 kts 211°
2026-04-26 01:52 35.52854 112.74677 38026 ft 494 kts 211°
2026-04-26 01:53 35.46558 112.71386 38021 ft 492 kts 211°
2026-04-26 01:53 35.40222 112.68085 38022 ft 494 kts 211°
2026-04-26 01:54 35.33867 112.64794 38021 ft 495 kts 211°
2026-04-26 01:54 35.27514 112.61509 38020 ft 495 kts 211°
2026-04-26 01:55 35.21183 112.58237 38015 ft 493 kts 211°
2026-04-26 01:55 35.14892 112.54996 38018 ft 492 kts 211°
2026-04-26 01:56 35.08406 112.52070 38021 ft 499 kts 205°